STARLINK-11164, 60120

Orbit data source: Space-Track

STARLINK-11164, 60120 is a payload satellite owned by SpaceX/Seattle (US) in LEO that was launched on Mon, 24 Jun 2024 UTC via an FALCON 9 launch vehicle from the Air Force Western Test Range (AFWTR). Payload-class satellites include a variety of spacecraft equipped with specific instruments for various scientific and technological missions. These include communications satellites like Starlink; space stations such as the ISS; scientific satellites like the Hubble; Earth observation satellites from companies like Planet Labs, Umbra, and HawkEye 360; GPS; miniature CubeSats for education and research; and military/defense satellites.

Loading next visibility...
Identifier
60120, 2024-118H
Orbit
LEO
Last TLE update
14 hours ago
Origin
Manufacturer
SpaceX/Seattle
Mission
Operational Commercial Communications
Bus & Motor
STARLINK V2M, Unknown motor
Mass
730 kg wet, ~700 kg dry
Launch date (UTC)
2024-06-24 (1 year ago)
Launch vehicle
FALCON 9
Launch site
Air Force Western Test Range (AFWTR)
Object type
Payload
Rocket body
Debris
Shape & HBR
Box + 2 Pan, 29 m
Radar Cross Section
33.884 m², Large (>1 m²)

Expand to show TLE details & history

TLE from 14 hours ago
0 STARLINK-11164
1 60120U 24118H   25181.87251193 -.00001289  00000-0 -57814-5 0  9990
2 60120  53.1588  22.5501 0001014  58.4546 301.6571 15.69708077 59551
Epoch: 2025-06-30T20:56Z
TLE epoch observation values (Epoch: 2025-06-30T20:56:25.03Z)
Latitude
-0.00002°
Longitude
149.26971°
Altitude
360.289 km
Speed
7.695 km/s
True Right ascension
01h 30m 12s
True Declination
0° 00' 00"
Sunlit
Object was in daylight at epoch
Visualization orbit readout
Latitude
-25.27304°
Longitude
125.8783°
Altitude
367.137 km
Speed
7.689 km/s
Apparent Right ascension
03h 23m 26s
Apparent Declination
-68° 19' 53"
Sunlit
Object is in partial shadow
Visualization observer readout
Local Sidereal Time
22:11:52
Azimuth
154.663° SSE
Elevation
-32.474°
Doppler factor
1
Orbital elements
Apogee altitude
360.676 km
Perigee altitude
359.31 km
Semi-major axis
6,738.13 km
Eccentricity
0.0001
Inclination
53.1588°
RAAN
22.5501°
Arg. of periapsis
58.4546°
True anomaly
Unknown
Mean anomaly
301.6571°
Eccentric anomaly
Unknown
Mean motion
3.92405 °/min
Orbital period
91.74 mins
BSTAR
-0.0000057814
Loading maneuver chart data...
Loading SW <> Apogee altitude chart data...
Loading historical data...
Loading historical data...
Loading historical data...
Loading historical data...
Loading historical data...
Loading historical data...
Loading historical data...

STARLINK-11164 Visibility forecast

Observer location: undefined°, undefined°

Span
Click to sort rows by Start time (UTC) header in descending order
Start Az.
Max El. time (UTC)
Max El. Az.
Max El.
End time (UTC)
End Az.
4 mins2025-07-01 15:26:24.180Z190.939° SSW2025-07-01 15:28:24.180Z143.932° SSE24.466°2025-07-01 15:30:24.180Z82.289° E
|